Time,TemperatureF,DewpointF,PressureIn,WindDirection,WindDirectionDegrees,WindSpeedMPH,WindSpeedGustMPH,Humidity,HourlyPrecipIn,Conditions,Clouds,dailyrainin,SoftwareType,DateUTC
2013-07-24 00:01:00,66.0,58.0,29.72,NNE,24,3.0,5.0,76,0.00,,,0.02,,2013-07-24 04:01:00,
2013-07-24 00:11:00,66.0,58.0,29.73,North,5,2.0,7.0,76,0.00,,,0.02,,2013-07-24 04:11:00,
2013-07-24 00:32:00,66.0,58.0,29.73,NNW,347,1.0,4.0,76,0.00,,,0.02,,2013-07-24 04:32:00,
2013-07-24 00:43:00,65.0,58.0,29.74,North,5,2.0,5.0,77,0.00,,,0.02,,2013-07-24 04:43:00,
2013-07-24 00:52:00,65.0,58.0,29.74,North,5,2.0,5.0,77,0.00,,,0.02,,2013-07-24 04:52:00,
2013-07-24 01:02:00,65.0,58.0,29.74,NNW,344,2.0,6.0,77,0.00,,,0.02,,2013-07-24 05:02:00,
2013-07-24 01:33:00,65.0,57.0,29.75,NNW,336,3.0,8.0,75,0.00,,,0.02,,2013-07-24 05:33:00,
2013-07-24 01:43:00,64.0,56.0,29.74,NNE,21,2.0,7.0,76,0.00,,,0.02,,2013-07-24 05:43:00,
2013-07-24 01:52:00,64.0,56.0,29.74,NNE,21,2.0,7.0,76,0.00,,,0.02,,2013-07-24 05:52:00,
2013-07-24 02:01:00,64.0,56.0,29.74,South,172,2.0,5.0,76,0.00,,,0.02,,2013-07-24 06:01:00,
2013-07-24 02:12:00,64.0,57.0,29.74,NW,316,1.0,4.0,77,0.00,,,0.02,,2013-07-24 06:12:00,
2013-07-24 02:34:00,64.0,57.0,29.74,North,9,2.0,5.0,79,0.00,,,0.01,,2013-07-24 06:34:00,
2013-07-24 02:53:00,63.0,57.0,29.75,North,355,1.0,3.0,81,0.00,,,0.01,,2013-07-24 06:53:00,
2013-07-24 03:02:00,63.0,57.0,29.76,NNW,331,2.0,5.0,82,0.00,,,0.01,,2013-07-24 07:02:00,
2013-07-24 03:32:00,62.0,57.0,29.77,NE,36,1.0,6.0,83,0.00,,,0.00,,2013-07-24 07:32:00,
2013-07-24 03:43:00,62.0,57.0,29.77,NW,325,1.0,5.0,83,0.00,,,0.00,,2013-07-24 07:43:00,
2013-07-24 04:02:00,61.0,56.0,29.77,NNE,15,1.0,5.0,85,0.00,,,0.00,,2013-07-24 08:02:00,
2013-07-24 04:12:00,61.0,56.0,29.77,NNE,15,1.0,5.0,85,0.00,,,0.00,,2013-07-24 08:12:00,
2013-07-24 04:32:00,61.0,57.0,29.77,NW,314,1.0,6.0,86,0.00,,,0.00,,2013-07-24 08:32:00,
2013-07-24 04:43:00,61.0,57.0,29.78,NW,319,2.0,6.0,86,0.00,,,0.00,,2013-07-24 08:43:00,
2013-07-24 04:52:00,61.0,57.0,29.78,NW,319,2.0,6.0,86,0.00,,,0.00,,2013-07-24 08:52:00,
2013-07-24 05:02:00,61.0,57.0,29.78,North,351,3.0,7.0,87,0.00,,,0.00,,2013-07-24 09:02:00,
2013-07-24 05:22:00,61.0,55.0,29.79,NNW,340,3.0,10.0,82,0.00,,,0.00,,2013-07-24 09:22:00,
2013-07-24 05:32:00,61.0,54.0,29.79,North,5,5.0,9.0,79,0.00,,,0.00,,2013-07-24 09:32:00,
2013-07-24 05:43:00,61.0,54.0,29.80,NNW,345,5.0,7.0,78,0.00,,,0.00,,2013-07-24 09:43:00,
2013-07-24 05:53:00,61.0,54.0,29.80,NNW,345,5.0,7.0,78,0.00,,,0.00,,2013-07-24 09:53:00,
2013-07-24 06:02:00,61.0,53.0,29.81,North,9,8.0,16.0,75,0.00,,,0.00,,2013-07-24 10:02:00,
2013-07-24 06:22:00,60.0,52.0,29.81,North,5,8.0,14.0,74,0.00,,,0.00,,2013-07-24 10:22:00,
2013-07-24 06:43:00,59.0,51.0,29.83,NNW,348,5.0,15.0,76,0.00,,,0.00,,2013-07-24 10:43:00,
2013-07-24 06:53:00,59.0,51.0,29.83,NNW,348,5.0,15.0,76,0.00,,,0.00,,2013-07-24 10:53:00,
2013-07-24 07:02:00,59.0,52.0,29.84,NNW,346,5.0,11.0,77,0.00,,,0.00,,2013-07-24 11:02:00,
2013-07-24 07:12:00,59.0,52.0,29.84,NNW,346,5.0,11.0,77,0.00,,,0.00,,2013-07-24 11:12:00,
2013-07-24 07:22:00,58.0,50.0,29.85,North,350,6.0,13.0,74,0.00,,,0.00,,2013-07-24 11:22:00,
2013-07-24 07:43:00,58.0,50.0,29.85,NW,311,6.0,16.0,76,0.00,,,0.00,,2013-07-24 11:43:00,
2013-07-24 07:52:00,58.0,50.0,29.85,NW,311,6.0,16.0,76,0.00,,,0.00,,2013-07-24 11:52:00,
2013-07-24 08:02:00,58.0,50.0,29.87,North,9,5.0,11.0,76,0.00,,,0.00,,2013-07-24 12:02:00,
2013-07-24 08:22:00,58.0,50.0,29.87,NE,43,7.0,13.0,75,0.00,,,0.00,,2013-07-24 12:22:00,
2013-07-24 08:32:00,57.0,50.0,29.88,NW,315,4.0,13.0,76,0.00,,,0.00,,2013-07-24 12:32:00,
2013-07-24 08:52:00,57.0,50.0,29.90,NNW,348,4.0,10.0,76,0.00,,,0.00,,2013-07-24 12:52:00,
2013-07-24 09:22:00,57.0,50.0,29.91,North,9,4.0,9.0,76,0.00,,,0.00,,2013-07-24 13:22:00,
2013-07-24 09:32:00,57.0,49.0,29.91,North,355,6.0,11.0,75,0.00,,,0.00,,2013-07-24 13:32:00,
2013-07-24 09:53:00,58.0,50.0,29.92,North,360,5.0,10.0,74,0.00,,,0.00,,2013-07-24 13:53:00,
2013-07-24 10:02:00,58.0,50.0,29.92,North,350,4.0,11.0,75,0.00,,,0.00,,2013-07-24 14:02:00,
2013-07-24 10:12:00,58.0,50.0,29.92,North,350,4.0,11.0,75,0.00,,,0.00,,2013-07-24 14:12:00,
2013-07-24 10:22:00,58.0,50.0,29.93,NW,318,5.0,11.0,75,0.00,,,0.00,,2013-07-24 14:22:00,
2013-07-24 10:32:00,58.0,50.0,29.94,North,5,5.0,10.0,74,0.00,,,0.00,,2013-07-24 14:32:00,
2013-07-24 10:43:00,58.0,49.0,29.95,North,360,5.0,10.0,73,0.00,,,0.00,,2013-07-24 14:43:00,
2013-07-24 10:55:00,58.0,49.0,29.95,North,360,5.0,10.0,73,0.00,,,0.00,,2013-07-24 14:55:00,
2013-07-24 11:12:00,59.0,51.0,29.95,NW,315,2.0,7.0,74,0.00,,,0.00,,2013-07-24 15:12:00,
2013-07-24 11:22:00,58.0,49.0,29.96,North,11,5.0,8.0,72,0.00,,,0.00,,2013-07-24 15:22:00,
2013-07-24 11:33:00,57.0,49.0,29.97,NNW,344,4.0,8.0,75,0.00,,,0.00,,2013-07-24 15:33:00,
2013-07-24 11:43:00,58.0,50.0,29.97,North,355,5.0,8.0,74,0.00,,,0.00,,2013-07-24 15:43:00,
2013-07-24 11:53:00,58.0,50.0,29.97,North,355,5.0,8.0,74,0.00,,,0.00,,2013-07-24 15:53:00,
2013-07-24 12:02:00,58.0,50.0,29.98,North,355,4.0,8.0,75,0.00,,,0.00,,2013-07-24 16:02:00,
2013-07-24 12:22:00,58.0,49.0,29.98,NW,310,4.0,10.0,73,0.00,,,0.00,,2013-07-24 16:22:00,
2013-07-24 12:33:00,59.0,50.0,29.98,NW,325,2.0,9.0,73,0.00,,,0.00,,2013-07-24 16:33:00,
2013-07-24 12:43:00,59.0,51.0,29.99,North,349,2.0,9.0,74,0.00,,,0.00,,2013-07-24 16:43:00,
2013-07-24 12:53:00,59.0,51.0,29.99,North,349,2.0,9.0,74,0.00,,,0.00,,2013-07-24 16:53:00,
2013-07-24 13:03:00,60.0,51.0,29.99,NNE,24,3.0,8.0,73,0.00,,,0.00,,2013-07-24 17:03:00,
2013-07-24 13:12:00,61.0,51.0,29.99,North,360,4.0,9.0,69,0.00,,,0.00,,2013-07-24 17:12:00,
2013-07-24 13:22:00,61.0,51.0,29.99,North,360,4.0,9.0,69,0.00,,,0.00,,2013-07-24 17:22:00,
2013-07-24 13:33:00,61.0,52.0,29.99,NNW,346,4.0,9.0,71,0.00,,,0.00,,2013-07-24 17:33:00,
2013-07-24 13:53:00,61.0,51.0,29.99,NNW,329,3.0,11.0,70,0.00,,,0.00,,2013-07-24 17:53:00,
2013-07-24 14:03:00,61.0,52.0,30.00,NNW,344,2.0,6.0,73,0.00,,,0.00,,2013-07-24 18:03:00,
2013-07-24 14:22:00,62.0,51.0,30.00,North,5,5.0,10.0,66,0.00,,,0.00,,2013-07-24 18:22:00,
2013-07-24 14:33:00,63.0,53.0,29.99,NW,318,1.0,10.0,70,0.00,,,0.00,,2013-07-24 18:33:00,
2013-07-24 14:43:00,64.0,51.0,29.99,NW,318,3.0,9.0,62,0.00,,,0.00,,2013-07-24 18:43:00,
2013-07-24 14:52:00,64.0,51.0,29.99,NW,318,3.0,9.0,62,0.00,,,0.00,,2013-07-24 18:52:00,
2013-07-24 15:03:00,64.0,50.0,30.00,WNW,285,6.0,13.0,60,0.00,,,0.00,,2013-07-24 19:03:00,
2013-07-24 15:12:00,64.0,50.0,30.00,WNW,285,6.0,13.0,60,0.00,,,0.00,,2013-07-24 19:12:00,
2013-07-24 15:22:00,63.0,49.0,30.00,NW,306,4.0,8.0,60,0.00,,,0.00,,2013-07-24 19:22:00,
2013-07-24 15:33:00,63.0,48.0,30.00,NNW,330,4.0,10.0,59,0.00,,,0.00,,2013-07-24 19:33:00,
2013-07-24 15:43:00,64.0,49.0,30.00,North,355,4.0,10.0,59,0.00,,,0.00,,2013-07-24 19:43:00,
2013-07-24 15:53:00,64.0,49.0,30.00,North,355,4.0,10.0,59,0.00,,,0.00,,2013-07-24 19:53:00,
2013-07-24 16:02:00,63.0,50.0,30.00,WNW,302,3.0,10.0,62,0.00,,,0.00,,2013-07-24 20:02:00,
2013-07-24 16:13:00,63.0,50.0,30.01,North,5,3.0,9.0,62,0.00,,,0.00,,2013-07-24 20:13:00,
2013-07-24 16:23:00,63.0,50.0,30.01,North,5,3.0,9.0,62,0.00,,,0.00,,2013-07-24 20:23:00,
2013-07-24 16:33:00,65.0,51.0,30.01,North,355,4.0,10.0,60,0.00,,,0.00,,2013-07-24 20:33:00,
2013-07-24 16:43:00,65.0,51.0,30.01,NNE,13,3.0,8.0,61,0.00,,,0.00,,2013-07-24 20:43:00,
2013-07-24 16:53:00,65.0,51.0,30.01,NNE,13,3.0,8.0,61,0.00,,,0.00,,2013-07-24 20:53:00,
2013-07-24 17:03:00,65.0,50.0,30.01,NW,325,4.0,8.0,59,0.00,,,0.00,,2013-07-24 21:03:00,
2013-07-24 17:12:00,65.0,50.0,30.01,NNE,15,4.0,9.0,59,0.00,,,0.00,,2013-07-24 21:12:00,
2013-07-24 17:22:00,65.0,50.0,30.01,NNE,15,4.0,9.0,59,0.00,,,0.00,,2013-07-24 21:22:00,
2013-07-24 17:32:00,65.0,51.0,30.01,North,351,4.0,9.0,60,0.00,,,0.00,,2013-07-24 21:32:00,
2013-07-24 17:52:00,65.0,51.0,30.02,NNE,22,2.0,6.0,61,0.00,,,0.00,,2013-07-24 21:52:00,
2013-07-24 18:02:00,65.0,50.0,30.01,NNW,344,2.0,7.0,58,0.00,,,0.00,,2013-07-24 22:02:00,
2013-07-24 18:12:00,65.0,50.0,30.01,NNW,344,2.0,7.0,58,0.00,,,0.00,,2013-07-24 22:12:00,
2013-07-24 18:22:00,65.0,50.0,30.01,NNW,333,4.0,6.0,58,0.00,,,0.00,,2013-07-24 22:22:00,
2013-07-24 18:43:00,65.0,50.0,30.01,NNW,347,2.0,6.0,58,0.00,,,0.00,,2013-07-24 22:43:00,
2013-07-24 18:53:00,65.0,50.0,30.01,NNW,347,2.0,6.0,58,0.00,,,0.00,,2013-07-24 22:53:00,
2013-07-24 19:02:00,65.0,50.0,30.01,NNW,347,2.0,6.0,58,0.00,,,0.00,,2013-07-24 23:02:00,
2013-07-24 19:22:00,64.0,49.0,30.02,NNW,328,0.0,4.0,59,0.00,,,0.00,,2013-07-24 23:22:00,
2013-07-24 19:52:00,63.0,50.0,30.02,NE,44,0.0,2.0,63,0.00,,,0.00,,2013-07-24 23:52:00,
2013-07-24 20:02:00,62.0,51.0,30.03,NE,44,0.0,0.0,68,0.00,,,0.00,,2013-07-25 00:02:00,
2013-07-24 20:12:00,62.0,52.0,30.03,NW,312,0.0,1.0,69,0.00,,,0.00,,2013-07-25 00:12:00,
2013-07-24 20:22:00,62.0,52.0,30.03,NW,312,0.0,1.0,69,0.00,,,0.00,,2013-07-25 00:22:00,
2013-07-24 20:33:00,61.0,52.0,30.03,NW,312,0.0,1.0,72,0.00,,,0.00,,2013-07-25 00:33:00,
2013-07-24 20:43:00,59.0,52.0,30.03,NW,312,0.0,0.0,79,0.00,,,0.00,,2013-07-25 00:43:00,
2013-07-24 20:53:00,59.0,52.0,30.03,NW,312,0.0,0.0,79,0.00,,,0.00,,2013-07-25 00:53:00,
2013-07-24 21:03:00,58.0,52.0,30.03,WSW,246,0.0,1.0,81,0.00,,,0.00,,2013-07-25 01:03:00,
2013-07-24 22:12:00,54.0,51.0,30.06,WSW,246,0.0,0.0,90,0.00,,,0.00,,2013-07-25 02:12:00,
2013-07-24 22:22:00,54.0,51.0,30.06,WSW,246,0.0,0.0,91,0.00,,,0.00,,2013-07-25 02:22:00,
2013-07-24 22:33:00,54.0,51.0,30.06,WSW,246,0.0,0.0,91,0.00,,,0.00,,2013-07-25 02:33:00,
2013-07-24 22:43:00,53.0,50.0,30.06,WSW,246,0.0,0.0,91,0.00,,,0.00,,2013-07-25 02:43:00,
2013-07-24 22:53:00,53.0,51.0,30.06,WSW,246,0.0,0.0,92,0.00,,,0.00,,2013-07-25 02:53:00,
2013-07-24 23:02:00,53.0,51.0,30.06,WSW,246,0.0,0.0,92,0.00,,,0.00,,2013-07-25 03:02:00,
2013-07-24 23:16:00,53.0,51.0,30.06,WSW,246,0.0,0.0,92,0.00,,,0.00,,2013-07-25 03:16:00,
2013-07-24 23:24:00,53.0,51.0,30.07,WSW,246,0.0,0.0,93,0.00,,,0.00,,2013-07-25 03:24:00,
2013-07-24 23:39:00,52.0,50.0,30.07,WSW,246,0.0,0.0,93,0.00,,,0.00,,2013-07-25 03:39:00,
2013-07-24 23:52:00,52.0,50.0,30.08,WSW,246,0.0,0.0,94,0.00,,,0.00,,2013-07-25 03:52:00,